• în România
  • Lista ţărilor
  • Pe 7 zile
  • Temperatura apei
  • Hartă satelitară
  • Meteo pe hartă
  • Widget-uri
  • user-avatar
    Intrare

    Meteo pe oră la Emenovo

    Astăzi, 26 Septembrie, Miercuri

    Timp Temperatura Precipitaţii Vânt Presiune Umiditate
    00:00 +3°C° 0 mm 4 m/s 748 mmHg 81%
    01:00 +1°C° 0 mm 4 m/s 748 mmHg 81%
    02:00 +1°C° 0 mm 4 m/s 749 mmHg 80%
    03:00 +2°C° 0 mm 3 m/s 749 mmHg 82%
    04:00 +1°C° 0 mm 3 m/s 750 mmHg 83%
    05:00 +1°C° 0 mm 3 m/s 750 mmHg 85%
    06:00 +2°C° 0 mm 3 m/s 750 mmHg 83%
    07:00 +3°C° 0 mm 3 m/s 751 mmHg 81%
    08:00 +3°C° 0 mm 3 m/s 751 mmHg 79%
    09:00 +5°C° 0 mm 4 m/s 751 mmHg 74%
    10:00 +7°C° 0 mm 4 m/s 751 mmHg 69%
    11:00 +10°C° 0 mm 4 m/s 750 mmHg 64%
    12:00 +9°C° 0 mm 5 m/s 750 mmHg 61%
    13:00 +10°C° 0 mm 5 m/s 749 mmHg 59%
    14:00 +10°C° 0 mm 5 m/s 749 mmHg 57%
    15:00 +9°C° 0 mm 5 m/s 748 mmHg 60%
    16:00 +9°C° 0 mm 5 m/s 747 mmHg 62%
    17:00 +8°C° 0 mm 5 m/s 746 mmHg 65%
    18:00 +7°C° 0.5 mm 6 m/s 745 mmHg 71%
    19:00 +6°C° 0.5 mm 7 m/s 744 mmHg 76%
    20:00 +5°C° 0.5 mm 7 m/s 743 mmHg 82%
    21:00 +5°C° 1.4 mm 8 m/s 742 mmHg 83%
    22:00 +5°C° 1.4 mm 8 m/s 740 mmHg 85%
    23:00 +5°C° 1.4 mm 9 m/s 739 mmHg 86%

    Mâine, 27 Septembrie, Joi

    Timp Temperatura Precipitaţii Vânt Presiune Umiditate
    00:00 +5°C° 0.8 mm 9 m/s 738 mmHg 87%
    01:00 +5°C° 0.8 mm 9 m/s 737 mmHg 87%
    02:00 +5°C° 0.8 mm 8 m/s 736 mmHg 87%
    03:00 +6°C° 0.8 mm 8 m/s 735 mmHg 88%
    04:00 +6°C° 0.8 mm 7 m/s 735 mmHg 88%
    05:00 +6°C° 0.8 mm 7 m/s 735 mmHg 88%
    06:00 +6°C° 0.2 mm 7 m/s 735 mmHg 85%
    07:00 +7°C° 0.2 mm 6 m/s 735 mmHg 82%
    08:00 +8°C° 0.2 mm 6 m/s 736 mmHg 79%
    09:00 +8°C° 0.1 mm 7 m/s 736 mmHg 74%
    10:00 +8°C° 0.1 mm 7 m/s 736 mmHg 69%
    11:00 +9°C° 0.1 mm 8 m/s 737 mmHg 65%
    12:00 +9°C° 0.3 mm 8 m/s 737 mmHg 66%
    13:00 +8°C° 0.3 mm 7 m/s 737 mmHg 68%
    14:00 +8°C° 0.3 mm 7 m/s 737 mmHg 69%
    15:00 +8°C° 0.1 mm 6 m/s 738 mmHg 71%
    16:00 +7°C° 0.1 mm 5 m/s 738 mmHg 72%
    17:00 +7°C° 0.1 mm 4 m/s 738 mmHg 74%
    18:00 +7°C° 0 mm 4 m/s 739 mmHg 75%
    19:00 +6°C° 0 mm 4 m/s 739 mmHg 75%
    20:00 +6°C° 0 mm 4 m/s 739 mmHg 76%
    21:00 +6°C° 0 mm 4 m/s 739 mmHg 76%
    22:00 +5°C° 0 mm 4 m/s 739 mmHg 76%
    23:00 +5°C° 0 mm 4 m/s 739 mmHg 76%

    Poimâine, 28 Septembrie, Vineri

    Timp Temperatura Precipitaţii Vânt Presiune Umiditate
    00:00 +6°C° 0.1 mm 4 m/s 738 mmHg 77%
    01:00 +6°C° 0.1 mm 4 m/s 737 mmHg 79%
    02:00 +7°C° 0.1 mm 3 m/s 736 mmHg 80%
    03:00 +7°C° 1.1 mm 5 m/s 735 mmHg 83%
    04:00 +8°C° 1.1 mm 6 m/s 733 mmHg 86%
    05:00 +9°C° 1.1 mm 7 m/s 732 mmHg 89%
    06:00 +10°C° 1.9 mm 7 m/s 732 mmHg 89%
    07:00 +11°C° 1.9 mm 7 m/s 731 mmHg 89%
    08:00 +11°C° 1.9 mm 7 m/s 731 mmHg 88%
    09:00 +10°C° 0.8 mm 7 m/s 731 mmHg 86%
    10:00 +10°C° 0.8 mm 7 m/s 732 mmHg 84%
    11:00 +9°C° 0.8 mm 7 m/s 733 mmHg 82%
    12:00 +8°C° 0.1 mm 6 m/s 734 mmHg 79%
    13:00 +7°C° 0.1 mm 6 m/s 735 mmHg 76%
    14:00 +7°C° 0.1 mm 6 m/s 737 mmHg 73%
    15:00 +6°C° 0 mm 5 m/s 737 mmHg 74%
    16:00 +6°C° 0 mm 4 m/s 738 mmHg 74%
    17:00 +5°C° 0 mm 3 m/s 739 mmHg 75%
    18:00 +4°C° 0 mm 3 m/s 740 mmHg 77%
    19:00 +4°C° 0 mm 3 m/s 741 mmHg 79%
    20:00 +3°C° 0 mm 3 m/s 741 mmHg 82%
    21:00 +3°C° 0 mm 3 m/s 742 mmHg 83%
    22:00 +3°C° 0 mm 3 m/s 742 mmHg 84%
    23:00 +2°C° 0 mm 3 m/s 743 mmHg 86%

    29 Septembrie, Sâmbătă

    Timp Temperatura Precipitaţii Vânt Presiune Umiditate
    00:00 +2°C° 0 mm 3 m/s 743 mmHg 86%
    01:00 +2°C° 0 mm 3 m/s 744 mmHg 87%
    02:00 +1°C° 0 mm 3 m/s 745 mmHg 87%
    03:00 +1°C° 0 mm 3 m/s 745 mmHg 87%
    04:00 +1°C° 0 mm 3 m/s 746 mmHg 87%
    05:00 0°C° 0 mm 3 m/s 746 mmHg 87%
    06:00 +1°C° 0 mm 3 m/s 747 mmHg 81%
    07:00 +2°C° 0 mm 3 m/s 747 mmHg 76%
    08:00 +3°C° 0 mm 3 m/s 748 mmHg 70%
    09:00 +4°C° 0 mm 4 m/s 748 mmHg 65%
    10:00 +5°C° 0 mm 4 m/s 748 mmHg 60%
    11:00 +7°C° 0 mm 4 m/s 749 mmHg 55%
    12:00 +7°C° 0 mm 4 m/s 749 mmHg 54%
    13:00 +7°C° 0 mm 4 m/s 749 mmHg 53%
    14:00 +8°C° 0 mm 4 m/s 749 mmHg 52%
    15:00 +7°C° 0 mm 3 m/s 749 mmHg 58%
    16:00 +6°C° 0 mm 2 m/s 750 mmHg 63%
    17:00 +5°C° 0 mm 2 m/s 750 mmHg 69%
    18:00 +4°C° 0 mm 2 m/s 750 mmHg 72%
    19:00 +3°C° 0 mm 2 m/s 751 mmHg 75%
    20:00 +3°C° 0 mm 1 m/s 751 mmHg 77%
    21:00 +3°C° 0 mm 1 m/s 752 mmHg 78%
    22:00 +2°C° 0 mm 1 m/s 752 mmHg 78%
    23:00 +2°C° 0 mm 1 m/s 752 mmHg 78%

    30 Septembrie, Duminică

    Timp Temperatura Precipitaţii Vânt Presiune Umiditate
    00:00 +2°C° 0 mm 1 m/s 752 mmHg 79%
    01:00 +1°C° 0 mm 1 m/s 753 mmHg 79%
    02:00 +1°C° 0 mm 1 m/s 753 mmHg 80%
    03:00 +1°C° 0 mm 1 m/s 753 mmHg 80%
    04:00 -1°C° 0 mm 2 m/s 753 mmHg 80%
    05:00 -1°C° 0 mm 2 m/s 753 mmHg 80%
    06:00 +1°C° 0 mm 2 m/s 753 mmHg 76%
    07:00 +2°C° 0 mm 2 m/s 753 mmHg 72%
    08:00 +3°C° 0 mm 3 m/s 753 mmHg 69%
    09:00 +4°C° 0 mm 3 m/s 752 mmHg 63%
    10:00 +6°C° 0 mm 4 m/s 752 mmHg 58%
    11:00 +7°C° 0 mm 4 m/s 752 mmHg 53%
    12:00 +7°C° 0 mm 4 m/s 751 mmHg 53%
    13:00 +8°C° 0 mm 5 m/s 751 mmHg 53%
    14:00 +8°C° 0 mm 5 m/s 750 mmHg 54%
    15:00 +8°C° 0 mm 4 m/s 750 mmHg 58%
    16:00 +7°C° 0 mm 4 m/s 750 mmHg 63%
    17:00 +7°C° 0 mm 3 m/s 750 mmHg 67%
    18:00 +5°C° 0 mm 3 m/s 750 mmHg 68%
    19:00 +5°C° 0 mm 4 m/s 750 mmHg 69%
    20:00 +4°C° 0 mm 4 m/s 749 mmHg 70%
    21:00 +4°C° 0 mm 4 m/s 749 mmHg 71%
    22:00 +4°C° 0 mm 4 m/s 749 mmHg 73%
    23:00 +4°C° 0 mm 4 m/s 749 mmHg 74%

    1 Octombrie, Luni

    Timp Temperatura Precipitaţii Vânt Presiune Umiditate
    00:00 +4°C° 0 mm 4 m/s 749 mmHg 75%
    01:00 +4°C° 0 mm 4 m/s 749 mmHg 76%
    02:00 +4°C° 0 mm 4 m/s 748 mmHg 77%
    03:00 +4°C° 0 mm 4 m/s 748 mmHg 77%
    04:00 +4°C° 0 mm 4 m/s 748 mmHg 77%
    05:00 +4°C° 0 mm 4 m/s 748 mmHg 77%
    06:00 +5°C° 0 mm 4 m/s 748 mmHg 76%
    07:00 +5°C° 0 mm 4 m/s 748 mmHg 75%
    08:00 +6°C° 0 mm 5 m/s 748 mmHg 74%
    09:00 +7°C° 0 mm 5 m/s 748 mmHg 70%
    10:00 +8°C° 0 mm 5 m/s 748 mmHg 66%
    11:00 +9°C° 0 mm 5 m/s 748 mmHg 63%
    12:00 +10°C° 0 mm 5 m/s 747 mmHg 61%
    13:00 +10°C° 0 mm 5 m/s 747 mmHg 59%
    14:00 +12°C° 0 mm 5 m/s 747 mmHg 58%
    15:00 +11°C° 0 mm 4 m/s 747 mmHg 63%
    16:00 +10°C° 0 mm 3 m/s 747 mmHg 68%
    17:00 +9°C° 0 mm 3 m/s 747 mmHg 73%
    18:00 +8°C° 0 mm 3 m/s 747 mmHg 76%
    19:00 +7°C° 0 mm 3 m/s 747 mmHg 79%
    20:00 +7°C° 0 mm 3 m/s 747 mmHg 82%
    21:00 +5°C° 0 mm 3 m/s 747 mmHg 83%
    22:00 +5°C° 0 mm 3 m/s 748 mmHg 84%
    23:00 +6°C° 0 mm 2 m/s 748 mmHg 84%
    Arată mai mult